Simultaneous Nadir Overpasses (SNOs) Predictions

Prediction of SNOs between LANDSAT-8 and METOP-A Satellite Orbit:

Table of predicted SNOs for the next 14.0 days since TLE Epoch: 9/7/2019
Index Date (LANDSAT-8) Time (LANDSAT-8) Lat,Lon (LANDSAT-8) SZA (LANDSAT-8 ) Date (METOP-A) Time (METOP-A) Lat,Lon (METOP-A) SZA (METOP-A ) Distance(km) Time Diff (sec)
1 09/09/2019 05:15:23 -81.47, -32.44 101.23 09/09/2019 05:15:18 -81.47, -32.26 101.21 3.04 5
2 09/09/2019 06:04:49 81.47, 135.28 78.80 09/09/2019 06:05:58 81.47, 135.31 78.84 0.63 69
3 09/12/2019 00:00:11 81.48,-133.30 79.90 09/11/2019 23:59:02 81.47,-133.43 79.85 2.17 69
4 09/12/2019 00:49:38 -81.48, 34.31 100.10 09/12/2019 00:49:42 -81.47, 34.34 100.10 1.01 4
5 09/14/2019 19:34:27 81.48, -66.96 80.98 09/14/2019 19:33:26 81.47, -66.86 80.96 1.84 61
6 09/14/2019 20:23:54 -81.48, 100.68 99.01 09/14/2019 20:24:07 -81.47, 100.53 99.02 2.43 13
7 09/17/2019 15:08:42 81.47, -0.62 82.08 09/17/2019 15:07:50 81.47, -0.70 82.04 1.21 52
8 09/17/2019 15:58:09 -81.47, 167.04 97.91 09/17/2019 15:58:30 -81.47, 167.11 97.90 1.26 21
9 09/20/2019 10:42:58 81.47, 65.72 83.17 09/20/2019 10:42:14 81.47, 65.86 83.17 2.31 44




NCC Satellite Simultaneous Nadir Overpasses (SNOs) Prediction Service
